#timestamp,LO_Frequency,Hit,StdDev 
1640854815.2,286046998.1,N
1640854835.0,286047000.8,N
1640854835.9,286047000.8,N
1640854855.8,286047000.9,N
1640854875.6,286046999.9,N
1640854895.4,286047000.1,N
1640854915.3,286047001.1,N
1640854935.1,286047000.8,N
1640854955.9,286047000.6,N
1640854975.7,286047002.1,N
1640854995.5,286047002.1,N
1640855015.4,286047002.0,N
1640855035.2,286047001.5,N
1640855055.0,286047002.0,N
1640855055.9,286047002.0,N
1640855075.8,286047001.8,N
1640855095.6,286047004.3,N
1640855115.5,286047002.8,N
1640855135.3,286047000.4,N
1640855155.1,286046998.1,N
1640855175.9,286046999.3,N
1640855195.7,286047001.0,N
1640855215.6,286047000.2,N
1640855235.4,286047002.8,N
1640855255.2,286047001.1,N
1640855275.1,286047000.9,N
1640855276.0,286047000.9,N
1640855295.8,286046999.8,N
1640855315.6,286047001.5,N
1640855335.5,286047001.0,N
1640855355.3,286047002.7,N
1640855375.2,286047002.7,N
1640855395.9,286047002.8,N
1640855415.7,286047002.0,N
1640855435.6,286047002.5,N
1640855455.4,286047002.6,N
1640855475.3,286047002.0,N
1640855495.1,286047001.7,N
1640855496.0,286047001.7,N
1640855515.8,286046999.8,N
1640855535.7,286047002.2,N
1640855555.5,286047002.5,N
1640855575.3,286047000.0,N
1640855595.2,286047001.0,N
1640855615.0,286046999.8,N
1640855615.9,286046999.8,N
1640855635.8,286047003.9,N
1640855655.6,286047004.3,Y
1640855675.4,286047002.3,P
1640855695.3,286047002.7,P
1640855715.1,286046999.7,N
1640855735.9,286047002.8,N
1640855755.7,286047001.6,N
1640855775.5,286047001.3,N
1640855795.4,286046999.9,N
1640855815.2,286046999.7,N
1640855835.1,286046998.1,N
1640855836.0,286046998.1,N
1640855855.8,286046998.9,N
1640855875.6,286046999.4,N
1640855895.5,286046999.4,N
1640855915.3,286046996.5,N
1640855935.1,286046996.8,N
1640855955.9,286046998.2,N
1640855975.7,286046998.1,N
1640855995.6,286047000.8,N
1640856015.4,286046999.4,N
1640856035.2,286046998.3,N
1640856055.1,286046996.9,N
1640856056.0,286046996.9,N
1640856075.8,286046997.0,N
1640856095.7,286046999.0,N
1640856115.5,286046998.7,N
1640856135.3,286046998.5,N
1640856155.2,286046999.3,N
1640856175.9,286046999.4,N
1640856195.7,286046999.2,N
1640856215.6,286046999.0,N
1640856235.4,286046998.6,N
1640856255.3,286046998.6,N
1640856275.1,286046998.8,N
1640856276.0,286046998.8,N
1640856295.8,286046996.5,N
1640856315.7,286046999.2,N
1640856335.5,286047001.1,N
1640856355.3,286046998.6,N
1640856375.2,286046999.3,N
1640856395.0,286046999.0,N
1640856395.9,286046999.0,N
1640856415.8,286046999.4,N
1640856435.6,286046998.8,N
1640856455.4,286046997.2,N
1640856475.3,286046996.5,Y
1640856495.1,286047000.4,P
1640856515.9,286047000.3,N
1640856535.7,286047000.7,N
1640856555.5,286047000.6,N
1640856575.4,286047000.3,N
1640856595.2,286047002.2,Y
1640856615.1,286047002.6,P
1640856616.0,286047002.6,N
1640856635.8,286047001.8,N
1640856655.6,286047004.3,Y
1640856675.5,286047000.1,P
1640856695.3,286047000.9,N
1640856715.1,286047000.4,N
1640856735.9,286047000.3,N
1640856755.7,286047001.0,N
1640856775.6,286047000.9,N
1640856795.4,286046998.4,Y
1640856815.2,286046999.5,P
1640856835.1,286046996.7,P
1640856836.0,286046996.7,N
1640856855.8,286046997.4,N
1640856875.7,286046997.9,N
1640856895.5,286046994.9,Y
1640856915.3,286046998.8,P
1640856935.2,286046999.2,N
1640856955.0,286046999.5,N
1640856955.9,286046999.5,N
1640856975.7,286046999.9,N
1640856995.6,286047000.9,N
1640857015.4,286046998.4,N
1640857035.3,286046998.8,N
1640857055.1,286046998.5,N
1640857075.8,286047002.8,Y
1640857095.7,286046999.0,P
1640857115.5,286047000.9,P
1640857135.8,286047002.4,N
1640857155.7,286047002.2,N
1640857175.5,286047002.7,N
1640857195.3,286047004.4,N
1640857215.2,286047002.8,N
1640857235.0,286047000.2,N
1640857235.9,286047000.2,N
1640857255.7,286047000.2,N
1640857275.6,286047002.4,N
1640857295.4,286047001.5,N
1640857315.3,286047002.6,N
1640857335.1,286047002.0,N
1640857336.0,286047002.0,N
1640857355.8,286047002.8,N
1640857375.7,286046998.2,N
1640857395.5,286046996.5,N
1640857415.4,286046999.4,N
1640857435.2,286046999.5,N
1640857455.0,286047001.2,N
1640857455.9,286047001.2,N
1640857475.8,286047001.2,N
1640857495.7,286047001.2,N
1640857515.6,286046998.2,N
1640857535.4,286046998.5,N
1640857555.2,286047001.2,N
1640857575.1,286047000.6,N
1640857576.0,286047000.6,N
1640857595.8,286046999.0,N
1640857615.7,286046996.7,N
1640857635.5,286046996.9,N
1640857655.3,286046996.5,N
1640857675.2,286046999.1,N
1640857695.0,286046999.0,N
1640857695.9,286046999.0,N
1640857715.8,286047001.1,N
1640857735.6,286047000.9,N
1640857755.4,286047000.7,N
1640857775.3,286046998.8,N
1640857795.1,286046996.6,N
1640857815.9,286046997.6,N
1640857835.7,286046995.0,N
1640857855.5,286046998.8,N
1640857875.4,286046999.2,N
1640857895.2,286046998.9,N
1640857915.1,286046996.6,N
1640857916.0,286046996.6,N
1640857935.8,286046999.4,N
1640857955.0,286046999.0,N
1640857955.9,286046999.0,N
1640857975.8,286046998.8,N
1640857995.6,286046998.3,N
1640858015.4,286047001.0,N
1640858035.3,286047002.4,N
1640858055.1,286047002.3,N
1640858075.8,286047000.7,N
1640858095.7,286047000.7,N
1640858115.5,286046998.8,N
1640858135.3,286046998.7,N
1640858155.2,286046999.3,N
1640858175.0,286046996.5,N
1640858175.9,286046996.5,N
1640858195.8,286046999.2,N
1640858215.6,286046999.9,N
1640858235.4,286046999.8,N
1640858255.3,286047002.3,N
1640858275.1,286047002.2,N
1640858295.9,286047002.1,N
1640858315.7,286047001.5,N
1640858335.5,286047002.8,N
1640858355.4,286047001.4,N
1640858375.2,286046999.7,N
1640858395.0,286047000.4,N
1640858395.9,286047000.4,N
